N8CTB Weather Reports


Display with metric or nautical units.
time (UTC)temp
F
wind
direction
speed
MPH
gust
MPH
rain 1hr
in
rain 24hr
in
rain mn
in
humidity
%
barometer
mb
20260503032502 35 235 0.0 0.0 0.00 0.00 0.00 76 1016.0
20260503032002 35 235 0.0 0.0 0.00 0.00 0.00 76 1015.9
20260503031504 35 235 0.0 0.0 0.00 0.00 0.00 76 1015.9
20260503031003 36 235 0.0 0.0 0.00 0.00 0.00 76 1016.0
20260503030503 36 235 0.0 0.0 0.00 0.00 0.00 75 1016.0
20260503030008 36 235 0.0 0.0 0.00 0.00 0.00 77 1016.1
20260503025505 37 235 0.0 0.0 0.00 0.00 0.00 77 1016.1
20260503025004 37 235 0.0 0.0 0.00 0.00 0.00 76 1016.2
20260503024512 37 235 0.0 0.0 0.00 0.00 0.00 74 1016.2
20260503024006 37 235 0.0 0.0 0.00 0.00 0.00 72 1016.2
20260503023504 38 235 0.0 0.0 0.00 0.00 0.00 72 1016.2
20260503023008 38 235 0.0 0.0 0.00 0.00 0.00 71 1016.1
20260503022506 38 235 0.0 0.0 0.00 0.00 0.00 69 1016.1
20260503022010 39 235 0.0 2.0 0.00 0.00 0.00 68 1016.1
20260503021515 39 235 0.0 2.0 0.00 0.00 0.00 71 1016.1
20260503021002 39 235 0.0 2.0 0.00 0.00 0.00 68 1016.1
20260503020502 40 235 0.0 2.0 0.00 0.00 0.00 64 1016.1
20260503020004 40 244 1.0 3.0 0.00 0.00 0.00 64 1016.1
20260503015506 40 244 1.0 3.0 0.00 0.00 0.00 65 1016.1
20260503015007 41 251 0.0 2.0 0.00 0.00 0.00 65 1016.0
20260503014509 41 261 0.0 2.0 0.00 0.00 0.00 62 1016.0
20260503014004 41 228 1.0 2.0 0.00 0.00 0.00 60 1016.0
20260503013505 42 242 1.0 2.0 0.00 0.00 0.00 60 1016.0
20260503013014 42 242 0.0 2.0 0.00 0.00 0.00 57 1016.0
20260503012503 43 258 0.0 3.0 0.00 0.00 0.00 55 1016.0
20260503012003 43 255 0.0 4.0 0.00 0.00 0.00 56 1015.9
20260503011516 43 251 1.0 5.0 0.00 0.00 0.00 53 1015.9
20260503011007 44 250 3.0 5.0 0.00 0.00 0.00 52 1016.0
20260503010504 44 223 2.0 3.0 0.00 0.00 0.00 52 1016.0
20260503010014 44 238 1.0 3.0 0.00 0.00 0.00 52 1016.0
20260503005505 45 230 1.0 4.0 0.00 0.00 0.00 48 1016.0
20260503005002 45 263 2.0 5.0 0.00 0.00 0.00 48 1015.9
20260503004508 45 239 2.0 5.0 0.00 0.00 0.00 47 1015.9
20260503004003 46 315 2.0 6.0 0.00 0.00 0.00 46 1015.9
20260503003506 46 294 3.0 6.0 0.00 0.00 0.00 45 1015.8
20260503003005 46 249 1.0 4.0 0.00 0.00 0.00 45 1015.8
20260503002503 46 239 2.0 5.0 0.00 0.00 0.00 44 1015.7
20260503002004 47 260 1.0 7.0 0.00 0.00 0.00 47 1015.8
20260503001514 47 285 3.0 7.0 0.00 0.00 0.00 43 1015.7
20260503001004 47 225 1.0 4.0 0.00 0.00 0.00 42 1015.8
20260503000504 47 114 1.0 7.0 0.00 0.00 0.00 42 1015.8
20260503000028 48 207 1.0 7.0 0.00 0.00 0.00 42 1015.9
20260502235504 48 242 3.0 5.0 0.00 0.00 0.00 40 1015.8
20260502235004 48 242 1.0 5.0 0.00 0.00 0.00 41 1015.9
20260502234530 48 242 1.0 9.0 0.00 0.00 0.00 40 1015.8
20260502234011 48 265 2.0 9.0 0.00 0.00 0.00 41 1015.9
20260502233504 49 232 4.0 6.0 0.00 0.00 0.00 40 1015.9
20260502233006 49 277 3.0 6.0 0.00 0.00 0.00 38 1016.0
20260502232503 50 46 1.0 5.0 0.00 0.00 0.00 41 1016.0
20260502232004 50 49 1.0 4.0 0.00 0.00 0.00 39 1016.1
20260502231514 50 213 1.0 5.0 0.00 0.00 0.00 42 1016.1
20260502231003 50 207 1.0 10.0 0.00 0.00 0.00 39 1016.1
20260502230507 50 236 3.0 10.0 0.00 0.00 0.00 41 1016.1
20260502230009 50 286 3.0 8.0 0.00 0.00 0.00 41 1016.2
20260502225503 50 312 2.0 11.0 0.00 0.00 0.00 40 1016.1
20260502225007 50 251 2.0 11.0 0.00 0.00 0.00 41 1016.1
20260502224522 50 162 3.0 10.0 0.00 0.00 0.00 42 1016.2
20260502224008 49 300 3.0 8.0 0.00 0.00 0.00 40 1016.2
20260502223508 50 221 3.0 16.0 0.00 0.00 0.00 40 1016.2
20260502223036 50 300 2.0 16.0 0.00 0.00 0.00 42 1016.2
20260502222504 50 211 7.0 16.0 0.00 0.00 0.00 44 1016.2
20260502222007 50 255 6.0 11.0 0.00 0.00 0.00 42 1016.3
20260502221508 50 286 3.0 11.0 0.00 0.00 0.00 42 1016.3
20260502221008 50 323 5.0 11.0 0.00 0.00 0.00 43 1016.4
20260502220506 50 279 2.0 9.0 0.00 0.00 0.00 43 1016.3
20260502220014 50 84 3.0 17.0 0.00 0.00 0.00 43 1016.3
20260502215507 50 248 8.0 15.0 0.00 0.00 0.00 45 1016.1
20260502215007 50 228 3.0 12.0 0.00 0.00 0.00 42 1016.2
20260502214520 50 327 3.0 12.0 0.00 0.00 0.00 43 1016.4
20260502214011 50 267 6.0 12.0 0.00 0.00 0.00 43 1016.3
20260502213508 50 252 6.0 16.0 0.00 0.00 0.00 45 1016.3
20260502213013 49 217 3.0 16.0 0.00 0.00 0.00 44 1016.3
20260502212505 50 231 7.0 11.0 0.00 0.00 0.00 46 1016.3
20260502212011 50 352 6.0 10.0 0.00 0.00 0.00 45 1016.3
20260502211512 50 274 3.0 8.0 0.00 0.00 0.00 47 1016.3
20260502211007 50 180 2.0 10.0 0.00 0.00 0.00 49 1016.3
20260502210511 50 265 5.0 16.0 0.00 0.00 0.00 46 1016.4
20260502210007 50 286 4.0 16.0 0.00 0.00 0.00 45 1016.4
20260502205508 51 242 6.0 11.0 0.00 0.00 0.00 46 1016.4
20260502205002 50 218 4.0 11.0 0.00 0.00 0.00 50 1016.5
20260502204507 50 339 3.0 12.0 0.00 0.00 0.00 46 1016.6
20260502204002 50 273 4.0 12.0 0.00 0.00 0.00 47 1016.6
20260502203502 49 165 1.0 11.0 0.00 0.00 0.00 48 1016.7
20260502203004 50 273 4.0 11.0 0.00 0.00 0.00 45 1016.7
20260502202503 50 192 4.0 10.0 0.00 0.00 0.00 48 1016.7
20260502202004 50 284 4.0 11.0 0.00 0.00 0.00 48 1016.8
20260502201503 50 240 3.0 11.0 0.00 0.00 0.00 46 1016.8
20260502201004 50 25 4.0 11.0 0.00 0.00 0.00 48 1016.9
20260502200503 50 308 4.0 11.0 0.00 0.00 0.00 47 1017.0
20260502200011 49 223 4.0 10.0 0.00 0.00 0.00 49 1017.1
20260502195503 48 224 6.0 10.0 0.00 0.00 0.00 53 1017.1
20260502195003 48 271 5.0 10.0 0.00 0.00 0.00 52 1017.2
20260502194520 48 284 2.0 11.0 0.00 0.00 0.00 51 1017.2
20260502194003 48 266 4.0 11.0 0.00 0.00 0.00 52 1017.2
20260502193504 48 182 3.0 12.0 0.00 0.00 0.00 50 1017.2
20260502193012 48 189 2.0 12.0 0.00 0.00 0.00 50 1017.4
20260502192505 47 241 2.0 12.0 0.00 0.00 0.00 53 1017.4
20260502192003 47 254 7.0 12.0 0.00 0.00 0.00 51 1017.4
20260502191504 47 327 3.0 10.0 0.00 0.00 0.00 50 1017.5
20260502191004 47 46 4.0 10.0 0.00 0.00 0.00 50 1017.5
20260502190504 47 62 3.0 13.0 0.00 0.00 0.00 51 1017.5
20260502190007 47 229 8.0 13.0 0.00 0.00 0.00 51 1017.6
20260502185504 47 242 2.0 12.0 0.00 0.00 0.00 51 1017.6
20260502185003 47 314 2.0 9.0 0.00 0.00 0.00 52 1017.7
20260502184503 47 284 3.0 10.0 0.00 0.00 0.00 52 1017.7
20260502184003 47 67 3.0 11.0 0.00 0.00 0.00 50 1017.7
20260502183506 47 214 6.0 11.0 0.00 0.00 0.00 50 1017.8
20260502183004 47 280 4.0 8.0 0.00 0.00 0.00 51 1017.8
20260502182506 47 238 2.0 8.0 0.00 0.00 0.00 51 1017.7
20260502182006 47 59 4.0 8.0 0.00 0.00 0.00 49 1017.8
20260502181517 47 71 3.0 7.0 0.00 0.00 0.00 50 1018.0
20260502181003 47 135 1.0 7.0 0.00 0.00 0.00 48 1018.1
20260502180503 47 261 4.0 7.0 0.00 0.00 0.00 53 1018.1
20260502170509 45 285 2.0 8.0 0.00 0.00 0.00 54 1018.5
20260502164003 44 257 5.0 11.0 0.00 0.00 0.00 57 1018.7
20260502163504 44 274 4.0 9.0 0.00 0.00 0.00 56 1018.8
20260502163035 45 206 2.0 14.0 0.00 0.00 0.00 56 1018.8
20260502162505 45 15 2.0 11.0 0.00 0.00 0.00 55 1018.8
20260502162011 44 250 3.0 9.0 0.00 0.00 0.00 54 1018.9
20260502161523 44 257 2.0 7.0 0.00 0.00 0.00 56 1018.9
20260502161006 44 292 2.0 7.0 0.00 0.00 0.00 55 1018.9
20260502160506 44 11 3.0 5.0 0.00 0.00 0.00 54 1018.9
20260502152008 42 65 2.0 7.0 0.00 0.00 0.00 55 1019.1
20260502151514 43 283 3.0 9.0 0.00 0.00 0.00 56 1019.1
20260502151003 42 235 4.0 9.0 0.00 0.00 0.00 56 1019.0
20260502150506 42 78 2.0 7.0 0.00 0.00 0.00 57 1019.0
20260502130505 38 61 3.0 6.0 0.00 0.00 0.00 74 1019.4
20260502123507 35 53 1.0 7.0 0.00 0.00 0.00 82 1019.4
20260502123014 35 29 2.0 9.0 0.00 0.00 0.00 83 1019.5
20260502122506 35 80 2.0 9.0 0.00 0.00 0.00 85 1019.4
20260502122011 34 66 4.0 8.0 0.00 0.00 0.00 86 1019.5
20260502121527 34 36 2.0 4.0 0.00 0.00 0.00 89 1019.3
20260502121007 33 54 2.0 4.0 0.00 0.00 0.00 91 1019.3
20260502120514 32 52 0.0 3.0 0.00 0.00 0.00 93 1019.3
20260502115508 31 257 0.0 2.0 0.00 0.00 0.00 95 1019.2
20260502115011 30 333 0.0 2.0 0.00 0.00 0.00 94 1019.1
20260502114525 29 352 0.0 2.0 0.00 0.00 0.00 94 1019.1
20260502114011 29 352 0.0 2.0 0.00 0.00 0.00 94 1019.0
20260502113510 29 352 0.0 0.0 0.00 0.00 0.00 93 1019.0
20260502113034 29 352 0.0 0.0 0.00 0.00 0.00 93 1019.0
20260502112511 29 352 0.0 2.0 0.00 0.00 0.00 93 1018.9
20260502112011 28 352 0.0 2.0 0.00 0.00 0.00 93 1018.9
20260502111528 28 261 0.0 2.0 0.00 0.00 0.00 93 1018.8
20260502111009 28 261 0.0 1.0 0.00 0.00 0.00 93 1018.8
20260502110510 28 261 1.0 1.0 0.00 0.00 0.00 93 1018.8
20260502110028 28 261 0.0 1.0 0.00 0.00 0.00 93 1018.8
20260502105514 28 261 0.0 0.0 0.00 0.00 0.00 93 1018.8
20260502105010 28 261 0.0 0.0 0.00 0.00 0.00 92 1018.8
20260502104530 28 261 0.0 0.0 0.00 0.00 0.00 92 1018.8
20260502104010 28 261 0.0 0.0 0.00 0.00 0.00 92 1018.8
20260502103511 28 261 0.0 0.0 0.00 0.00 0.00 92 1018.8
20260502103031 28 261 0.0 0.0 0.00 0.00 0.00 92 1018.8
20260502102512 28 261 0.0 2.0 0.00 0.00 0.00 92 1018.8
20260502102012 28 261 0.0 2.0 0.00 0.00 0.00 92 1018.8
20260502101528 28 261 0.0 2.0 0.00 0.00 0.00 92 1018.7
20260502101010 28 261 0.0 0.0 0.00 0.00 0.00 92 1018.6
20260502100512 28 261 0.0 0.0 0.00 0.00 0.00 91 1018.6
20260502091531 30 261 0.0 0.0 0.00 0.00 0.00 90 1018.4
20260502091011 30 261 0.0 0.0 0.00 0.00 0.00 90 1018.3
20260502090510 30 261 0.0 0.0 0.00 0.00 0.00 90 1018.3
20260502071532 30 261 0.0 0.0 0.00 0.00 0.00 89 1018.3
20260502071016 30 261 0.0 0.0 0.00 0.00 0.00 89 1018.2
20260502070518 30 261 0.0 0.0 0.00 0.00 0.00 89 1018.2
20260502070047 30 261 0.0 0.0 0.00 0.00 0.00 89 1018.2
20260502065515 31 261 0.0 0.0 0.00 0.00 0.00 89 1018.3
20260502065016 31 261 0.0 0.0 0.00 0.00 0.00 89 1018.2
20260502064542 31 261 0.0 0.0 0.00 0.00 0.00 88 1018.3
20260502064015 31 261 0.0 0.0 0.00 0.00 0.00 88 1018.3
20260502063515 31 261 0.0 0.0 0.00 0.00 0.00 88 1018.4
20260502063035 31 261 0.0 0.0 0.00 0.00 0.00 88 1018.4
20260502062518 31 261 0.0 0.0 0.00 0.00 0.00 87 1018.4
20260502062012 31 261 0.0 0.0 0.00 0.00 0.00 87 1018.5
20260502061535 31 261 0.0 0.0 0.00 0.00 0.00 86 1018.5
20260502061017 31 261 0.0 0.0 0.00 0.00 0.00 86 1018.5
20260502060514 31 261 0.0 0.0 0.00 0.00 0.00 86 1018.5
20260502060005 31 261 0.0 0.0 0.00 0.00 0.00 86 1018.5
20260502055503 31 261 0.0 0.0 0.00 0.00 0.00 85 1018.5
20260502055003 31 261 0.0 0.0 0.00 0.00 0.00 85 1018.4
20260502054502 31 261 0.0 0.0 0.00 0.00 0.00 85 1018.5
20260502054003 32 261 0.0 0.0 0.00 0.00 0.00 85 1018.5
20260502053502 32 261 0.0 0.0 0.00 0.00 0.00 85 1018.5
20260502053003 32 261 0.0 0.0 0.00 0.00 0.00 84 1018.5
20260502052502 32 261 0.0 0.0 0.00 0.00 0.00 84 1018.5
20260502052005 32 261 0.0 0.0 0.00 0.00 0.00 84 1018.5
20260502051505 32 261 0.0 0.0 0.00 0.00 0.00 82 1018.4
20260502051003 32 261 0.0 0.0 0.00 0.00 0.00 82 1018.4
20260502050503 32 261 0.0 0.0 0.00 0.00 0.00 81 1018.5
20260502050010 33 261 0.0 0.0 0.00 0.00 0.00 81 1018.4
20260502045503 33 261 0.0 0.0 0.00 0.00 0.00 81 1018.4
20260502045003 33 261 0.0 0.0 0.00 0.00 0.00 80 1018.3
20260502044506 33 261 0.0 0.0 0.00 0.00 0.00 79 1018.3
20260502044004 34 261 0.0 0.0 0.00 0.00 0.00 78 1018.3
20260502043503 34 261 0.0 0.0 0.00 0.00 0.00 78 1018.3
20260502043004 34 261 0.0 2.0 0.00 0.00 0.00 78 1018.3
20260502042503 34 261 0.0 2.0 0.00 0.00 0.00 76 1018.3
20260502042003 34 261 0.0 2.0 0.00 0.00 0.00 76 1018.2
20260502041504 35 261 0.0 2.0 0.00 0.00 0.00 77 1018.2
20260502041002 35 245 0.0 2.0 0.00 0.00 0.00 75 1018.1
20260502040503 35 245 0.0 2.0 0.00 0.00 0.00 75 1018.1
20260502040004 35 294 0.0 2.0 0.00 0.00 0.00 74 1018.1
20260502035505 35 11 0.0 2.0 0.00 0.00 0.00 72 1018.0
20260502035004 35 11 0.0 2.0 0.00 0.00 0.00 71 1018.0
20260502034507 35 298 0.0 2.0 0.00 0.00 0.00 70 1018.0
20260502034003 36 78 0.0 3.0 0.00 0.00 0.00 70 1017.9
20260502033502 36 24 0.0 3.0 0.00 0.00 0.00 69 1017.9
20260502033009 36 49 0.0 4.0 0.00 0.00 0.00 68 1017.9